DW1024 Weather Reports


time (UTC)temp
C
wind
direction
speed
KPH
gust
KPH
rain 1hr
cm
rain 24hr
cm
rain mn
cm
humidity
%
barometer
mb
20260902091649 23 250 1.6 4.8 0.00 0.00 0.00 59 1023.2
20260902090149 23 215 1.6 4.8 0.00 0.00 0.00 57 1023.1
20260902084650 21 49 1.6 4.8 0.00 0.00 0.00 62 1023.3
20260902083148 21 258 1.6 4.8 0.00 0.00 0.00 64 1023.3
20260902081650 20 63 0.0 0.0 0.00 0.00 0.00 67 1023.3
20260902080149 20 65 0.0 0.0 0.00 0.00 0.00 66 1023.3
20260902074650 20 195 0.0 0.0 0.00 0.00 0.00 70 1023.4
20260902073147 19 195 0.0 0.0 0.00 0.00 0.00 73 1023.3
20260902071645 18 195 1.6 4.8 0.00 0.00 0.00 77 1023.3
20260902070144 17 195 0.0 3.2 0.00 0.00 0.00 82 1023.3
20260902064645 15 195 0.0 0.0 0.00 0.00 0.00 88 1023.2
20260902063147 13 195 0.0 0.0 0.00 0.00 0.00 90 1023.2
20260902061649 13 194 0.0 0.0 0.00 0.00 0.00 92 1023.2
20260902060147 12 194 0.0 0.0 0.00 0.00 0.00 94 1023.1
20260902054646 11 195 0.0 0.0 0.00 0.00 0.00 94 1023.0
20260902051641 11 194 0.0 0.0 0.00 0.00 0.00 95 1022.8
20260902050140 10 194 0.0 0.0 0.00 0.00 0.00 95 1022.9
20260902043140 10 194 0.0 0.0 0.00 0.00 0.00 95 1022.7
20260902033142 10 194 0.0 0.0 0.00 0.00 0.00 94 1022.6
20260902031638 11 194 0.0 0.0 0.00 0.00 0.00 93 1022.9
20260902030138 11 194 0.0 0.0 0.00 0.00 0.00 93 1022.6
20260902024638 11 194 0.0 0.0 0.00 0.00 0.00 94 1022.9
20260902023139 11 194 0.0 0.0 0.00 0.00 0.00 93 1023.1
20260902021639 11 194 0.0 0.0 0.00 0.00 0.00 93 1023.1
20260902020138 11 194 0.0 0.0 0.00 0.00 0.00 93 1023.2
20260902014640 11 194 0.0 0.0 0.00 0.00 0.00 93 1023.1
20260902013138 11 194 0.0 0.0 0.00 0.00 0.00 93 1023.1
20260902011639 11 194 0.0 0.0 0.00 0.00 0.00 91 1023.2
20260902010142 12 194 0.0 0.0 0.00 0.00 0.00 91 1023.1
20260902004640 12 194 0.0 0.0 0.00 0.00 0.00 91 1023.2
20260902003142 12 194 0.0 0.0 0.00 0.00 0.00 91 1023.3
20260902001640 12 194 0.0 1.6 0.00 0.00 0.00 92 1023.4
20260902000142 12 133 0.0 0.0 0.00 0.00 0.00 92 1023.3
20260901234640 12 133 0.0 0.0 0.00 0.00 0.00 92 1023.2
20260901233135 12 133 0.0 0.0 0.00 0.00 0.00 92 1023.3
20260901230136 13 133 0.0 0.0 0.00 0.00 0.00 91 1023.4
20260901224634 13 133 0.0 0.0 0.00 0.00 0.00 90 1023.5
20260901223135 13 133 0.0 0.0 0.00 0.00 0.00 90 1023.4
20260901221634 13 133 0.0 0.0 0.00 0.00 0.00 88 1023.5
20260901220141 14 133 0.0 1.6 0.00 0.00 0.00 89 1023.5
20260901214632 13 133 0.0 0.0 0.00 0.00 0.00 89 1023.6
20260901213135 14 133 0.0 0.0 0.00 0.00 0.00 88 1023.5
20260901211630 14 133 0.0 0.0 0.00 0.00 0.00 87 1023.6
20260901210130 15 133 0.0 1.6 0.00 0.00 0.00 86 1023.4
20260901204630 14 133 0.0 0.0 0.00 0.00 0.00 86 1023.4
20260901203131 15 133 0.0 0.0 0.00 0.00 0.00 85 1023.3
20260901201631 15 133 0.0 0.0 0.00 0.00 0.00 83 1023.2
20260901200130 16 133 0.0 1.6 0.00 0.00 0.00 81 1023.1
20260901194629 16 133 0.0 0.0 0.00 0.00 0.00 79 1023.0
20260901193136 16 133 0.0 0.0 0.00 0.00 0.00 78 1023.0
20260901191630 17 133 0.0 0.0 0.00 0.00 0.00 75 1022.8
20260901190130 18 133 0.0 1.6 0.00 0.00 0.00 73 1022.7
20260901184630 18 133 0.0 0.0 0.00 0.00 0.00 71 1022.5
20260901183136 19 133 0.0 3.2 0.00 0.00 0.00 68 1022.5
20260901181632 19 331 0.0 3.2 0.00 0.00 0.00 66 1022.4
20260901180135 20 331 0.0 1.6 0.00 0.00 0.00 65 1022.3
20260901174629 20 331 0.0 4.8 0.00 0.00 0.00 62 1022.2
20260901173130 21 103 0.0 4.8 0.00 0.00 0.00 59 1022.1
20260901171633 22 33 0.0 3.2 0.00 0.00 0.00 56 1022.1
20260901170129 22 70 1.6 6.4 0.00 0.00 0.00 55 1022.1
20260901164631 23 229 3.2 9.7 0.00 0.00 0.00 53 1022.2
20260901163130 23 254 1.6 4.8 0.00 0.00 0.00 52 1022.1
20260901161630 23 304 3.2 11.3 0.00 0.00 0.00 52 1022.1
20260901160129 24 277 3.2 11.3 0.00 0.00 0.00 49 1022.0
20260901154633 24 209 3.2 12.9 0.00 0.00 0.00 48 1021.8
20260901153128 25 126 3.2 9.7 0.00 0.00 0.00 48 1021.8
20260901151629 25 276 3.2 8.0 0.00 0.00 0.00 48 1022.0
20260901150128 25 315 3.2 12.9 0.00 0.00 0.00 46 1022.0
20260901143130 23 65 0.0 3.2 0.00 0.00 0.00 52 1022.0
20260901141631 22 228 1.6 6.4 0.00 0.00 0.00 55 1022.1
20260901134631 24 234 3.2 16.1 0.00 0.00 0.00 51 1022.2
20260901133127 23 355 4.8 17.7 0.00 0.00 0.00 49 1022.4
20260901131634 23 332 4.8 12.9 0.00 0.00 0.00 49 1022.5
20260901130453 25 245 3.2 12.9 0.00 0.00 0.00 45 1022.6
20260901124956 25 324 3.2 12.9 0.00 0.00 0.00 47 1022.7
20260901123456 23 213 3.2 11.3 0.00 0.00 0.00 52 1022.8
20260901121956 23 164 1.6 9.7 0.00 0.00 0.00 51 1022.8
20260901120453 23 205 3.2 8.0 0.00 0.00 0.00 55 1022.7
20260901111952 24 215 3.2 12.9 0.00 0.00 0.00 52 1023.1
20260901110453 24 315 3.2 11.3 0.00 0.00 0.00 51 1023.2
20260901104956 23 154 3.2 11.3 0.00 0.00 0.00 58 1023.3
20260901103455 22 0 1.6 9.7 0.00 0.00 0.00 55 1023.3
20260901101955 22 245 3.2 12.9 0.00 0.00 0.00 53 1023.4
20260901100456 22 263 3.2 8.0 0.00 0.00 0.00 56 1023.4
20260901093454 22 230 3.2 12.9 0.00 0.00 0.00 55 1023.4